FW8347 Weather Reports


time (UTC)temp
C
wind
direction
speed
KPH
gust
KPH
rain 1hr
cm
rain 24hr
cm
rain mn
cm
humidity
%
barometer
mb
20260906214607 21 355 6.4 14.5 0.00 0.48 0.43 73 1019.1
20260906213051 21 45 6.4 17.7 0.00 0.48 0.43 74 1019.2
20260906211603 21 61 6.4 16.1 0.00 0.48 0.43 73 1019.3
20260906210113 21 43 6.4 16.1 0.00 0.48 0.43 73 1019.4
20260906204600 21 5 8.0 19.3 0.03 0.48 0.43 73 1019.3
20260906203059 21 71 6.4 19.3 0.03 0.48 0.43 75 1019.2
20260906201556 21 38 8.0 19.3 0.03 0.48 0.43 75 1019.2
20260906200052 21 339 11.3 24.1 0.03 0.48 0.43 75 1019.4
20260906194558 20 41 11.3 22.5 0.00 0.46 0.41 77 1019.2
20260906193047 20 22 12.9 24.1 0.00 0.46 0.41 77 1019.2
20260906191606 20 38 11.3 27.4 0.00 0.46 0.41 77 1019.2
20260906190054 20 15 9.7 20.9 0.03 0.46 0.41 77 1019.3
20260906184601 20 30 11.3 20.9 0.03 0.46 0.41 78 1019.3
20260906183051 20 76 9.7 19.3 0.03 0.46 0.41 77 1019.4
20260906181558 20 42 8.0 19.3 0.03 0.46 0.41 79 1019.3
20260906180110 20 20 11.3 19.3 0.00 0.43 0.38 79 1019.4
20260906174557 19 27 11.3 22.5 0.00 0.46 0.38 79 1019.3
20260906173100 19 9 11.3 24.1 0.03 0.46 0.38 80 1019.4
20260906171556 18 51 16.1 24.1 0.03 0.46 0.38 79 1019.4
20260906170049 18 86 9.7 24.1 0.03 0.46 0.38 83 1019.3
20260906164549 19 19 11.3 22.5 0.03 0.46 0.38 81 1019.2
20260906163051 19 76 16.1 25.7 0.03 0.43 0.36 81 1019.3
20260906161556 18 82 16.1 27.4 0.03 0.43 0.36 80 1019.4
20260906160052 18 57 14.5 25.7 0.03 0.43 0.36 82 1019.4
20260906154553 18 45 16.1 25.7 0.03 0.43 0.36 82 1019.4
20260906153110 18 23 17.7 29.0 0.00 0.41 0.33 82 1019.3
20260906151601 19 75 14.5 29.0 0.03 0.41 0.33 82 1019.4
20260906150052 19 59 14.5 27.4 0.03 0.41 0.33 82 1019.3
20260906144600 18 56 14.5 29.0 0.03 0.41 0.33 83 1019.3
20260906143056 18 84 16.1 27.4 0.03 0.41 0.33 83 1019.2
20260906141558 18 66 16.1 27.4 0.03 0.38 0.30 84 1018.9
20260906140053 18 61 19.3 33.8 0.03 0.38 0.30 81 1018.8
20260906134610 19 88 14.5 27.4 0.03 0.38 0.30 83 1018.7
20260906133104 19 50 17.7 27.4 0.05 0.38 0.30 84 1018.6
20260906131556 19 94 14.5 25.7 0.03 0.36 0.28 83 1018.3
20260906130055 19 78 9.7 24.1 0.03 0.36 0.28 84 1018.5
20260906124550 19 94 11.3 25.7 0.05 0.36 0.28 84 1018.4
20260906123056 19 53 14.5 27.4 0.03 0.33 0.25 84 1018.2
20260906121558 19 24 14.5 30.6 0.03 0.33 0.25 85 1018.1
20260906120059 19 57 16.1 27.4 0.03 0.33 0.25 86 1017.9
20260906114549 18 38 17.7 27.4 0.03 0.30 0.23 86 1017.8
20260906113047 18 92 16.1 29.0 0.03 0.30 0.23 87 1017.6
20260906111556 19 88 14.5 32.2 0.03 0.30 0.23 88 1017.4
20260906104553 19 71 14.5 25.7 0.03 0.28 0.20 86 1017.0
20260906103102 20 90 16.1 25.7 0.03 0.28 0.20 86 1016.8
20260906101547 19 32 9.7 19.3 0.05 0.28 0.20 85 1016.7
20260906100100 20 67 8.0 19.3 0.03 0.25 0.18 85 1016.3
20260906094550 20 25 12.9 20.9 0.03 0.25 0.18 85 1016.3
20260906093102 20 53 9.7 22.5 0.03 0.25 0.18 85 1016.2
20260906091558 20 89 6.4 19.3 0.03 0.23 0.15 85 1015.9
20260906090116 20 33 8.0 19.3 0.03 0.23 0.15 85 1015.7
20260906084612 20 360 11.3 22.5 0.03 0.23 0.15 85 1015.5
20260906083056 20 111 11.3 20.9 0.05 0.23 0.15 86 1015.3
20260906081558 20 31 9.7 19.3 0.03 0.20 0.13 88 1015.3
20260906080122 20 5 8.0 17.7 0.03 0.20 0.13 88 1015.3
20260906074607 20 351 8.0 19.3 0.03 0.20 0.13 88 1015.3
20260906073104 20 30 4.8 12.9 0.00 0.18 0.10 87 1015.2
20260906071550 20 15 8.0 16.1 0.03 0.18 0.10 86 1015.3
20260906070058 20 350 8.0 19.3 0.03 0.18 0.10 85 1015.2
20260906064555 20 27 11.3 16.1 0.03 0.18 0.10 85 1015.3
20260906063052 20 15 8.0 16.1 0.05 0.18 0.10 85 1015.3
20260906061605 20 26 6.4 14.5 0.03 0.15 0.08 85 1015.3
20260906060059 20 30 6.4 14.5 0.05 0.15 0.08 83 1015.3
20260906054555 20 26 6.4 14.5 0.05 0.15 0.08 83 1015.3
20260906053058 20 55 6.4 14.5 0.03 0.13 0.05 82 1015.3
20260906051559 20 63 6.4 17.7 0.05 0.13 0.05 82 1015.4
20260906050106 21 65 8.0 19.3 0.03 0.10 0.03 82 1015.2
20260906044554 21 21 9.7 19.3 0.03 0.10 0.03 82 1015.3
20260906043056 21 5 11.3 20.9 0.05 0.10 0.03 82 1015.2
20260906041604 21 33 9.7 17.7 0.03 0.08 0.00 83 1015.1
20260906040059 21 63 9.7 20.9 0.03 0.08 0.00 84 1015.1
20260906034613 21 25 12.9 25.7 0.03 0.08 0.08 84 1015.1
20260906033050 21 11 9.7 20.9 0.00 0.05 0.05 86 1015.1
20260906031557 20 360 14.5 22.5 0.03 0.05 0.05 87 1015.0
20260906030057 20 5 14.5 20.9 0.03 0.05 0.05 87 1014.9
20260906024558 20 355 6.4 16.1 0.03 0.05 0.05 88 1014.9
20260906023101 20 345 6.4 14.5 0.03 0.05 0.05 88 1014.8
20260906021601 20 342 8.0 14.5 0.00 0.03 0.03 88 1014.8
20260906020100 20 342 8.0 14.5 0.00 0.03 0.03 87 1014.7
20260906014550 20 360 8.0 14.5 0.00 0.03 0.03 87 1014.8
20260906013107 20 348 6.4 12.9 0.00 0.03 0.03 86 1014.6
20260906011559 20 345 3.2 12.9 0.00 0.03 0.03 85 1014.6
20260906010056 20 355 4.8 9.7 0.00 0.03 0.03 85 1014.8
20260906004546 20 355 4.8 12.9 0.00 0.03 0.03 85 1014.5
20260906003056 20 344 3.2 8.0 0.00 0.03 0.03 84 1014.4
20260906001555 21 360 1.6 8.0 0.00 0.03 0.03 82 1014.6
20260906000104 21 346 1.6 9.7 0.00 0.03 0.03 82 1014.5
20260905234620 21 340 1.6 8.0 0.00 0.03 0.03 80 1014.6
20260905233058 22 360 3.2 8.0 0.00 0.03 0.03 79 1014.6
20260905231555 22 0 0.0 4.8 0.00 0.03 0.03 76 1014.5
20260905230105 23 352 1.6 6.4 0.00 0.03 0.03 75 1014.6
20260905224606 24 346 1.6 8.0 0.00 0.03 0.03 73 1014.6
20260905223057 25 355 3.2 8.0 0.00 0.03 0.03 70 1014.5
20260905221553 25 351 3.2 6.4 0.00 0.03 0.03 71 1014.5
20260905220113 25 351 1.6 8.0 0.00 0.03 0.03 71 1014.4